DELTA 1 DEB

Satellite information

Favourite Embed

Satellite Type and Status

DEBRISIN ORBIT

Key statistics

Satellite DELTA 1 DEB at a glance.

Uptime

17451

Days in orbit

Revolutions

≈ 14.4

Per day

Orbit

SSO

Sun Synchronous Orbit

Inclination

98.7

Latest

Satellite identification and parameters

Extended collection of information and parameters for DELTA 1 DEB.

Object identification

Identified? True

Debris? True

Object name: DELTA 1 DEB

International designator: 1978-026FD

Object number (NORAD): 13566

Object ID (CCSDS): 13566

Country: UNITED STATES OF AMERICA (US)

Current information (Y/N): Y

RCS size: SMALL

Orbital parameters

Period: 100.251 minutes

Inclination: 98.6889 deg

SMA: 7148.562 km

Apoapsis: 793.726 km

Periapsis: 747.129 km

RAAN: 19.3147 deg

Eccentricy: 0.00325923

Argument of periapsis: 230.6327 deg

Mean anomaly: 162.0862 deg

Mean motion: 14.36397652 rev/day

Mean motion (dot): 0.00001983 rev/day2

B* drag term: 0.00068822967 1/REarth

Two-line elements (TLE)

Creation date: Dec. 13, 2025, 4:32 a.m.

Reference frame: TEME

Reference center: EARTH

Epoch: Dec. 13, 2025, 12:48 a.m. UTC

TLE line 0: 0 DELTA 1 DEB

TLE line 1: 1 13566U 78026FD 25347.03358687 .00001983 00000-0 68823-3 0 9996

TLE line 2: 2 13566 98.6889 19.3147 0032592 230.6327 162.0862 14.36397652258882

Live tracking on map

Real-time ground track for satellite DELTA 1 DEB.

In-orbit conjunctions

A list of the most updated potential collisions computed for object DELTA 1 DEB.

Target Orbit TCA Probability of collision Miss distance Type
CZ-6A DEB LEO 2025-02-27 00:13:33 0.0001062076 618.0 (m) DEBRIS
WEOS SSO 2024-08-23 05:04:38 0.0005856803 603.0 (m) PAYLOAD

Associated space launch

Earth observation satellite

DELTA 1 DEB was lifted into orbit during the mission ‘Delta 2910 | Landsat 3’, on board a Delta 2910 space rocket.

The launch took place on March 5, 1978, 5:54 p.m. from Space Launch Complex 2W.

For more information about the launch, click the button.

Launch to space Delta 2910 | Landsat 3
Delta 2910 | Landsat 3

Agency: N/A

Status: Launch Successful

Launch date: March 5, 1978, 5:54 p.m. UTC

Rocket: Delta 2910

Launch pad: Space Launch Complex 2W

Location: Vandenberg SFB, CA, USA

...

Latest news about this satellite

There are no fresh news available about this satellite. Check back as we update our databases every day.


Newsletter sign-up

Weekly statistics, charts and insights to help you stay on top of the space industry.